When you browse on this site, cookies collect data to enhance your experience and personalize the content and advertising you see.
Visit our Privacy Policy to learn more. By continuing to use the site, you agree to this use of cookies and data.
  • In Schweiz
  • Länderverzeichnis
  • Für 7 Tage
  • Wassertemperatur
  • Satellitenkarten
  • Wetterkarte
  • Widgets
  • user-avatar
    Anmelden

    Stündliche Wetter Kchulna

    Heute, 25 April, Donnerstag

    Zeit Temperatur Niederschläge Wind Luftdruck Luftfeuchtigkeit
    00:00 +32°C° 0 mm 1 m/S 755 mmHg 49%
    01:00 +31°C° 0 mm 1 m/S 755 mmHg 51%
    02:00 +31°C° 0 mm 1 m/S 755 mmHg 53%
    03:00 +31°C° 0 mm 1 m/S 754 mmHg 55%
    04:00 +30°C° 0 mm 2 m/S 755 mmHg 57%
    05:00 +30°C° 0 mm 2 m/S 755 mmHg 59%
    06:00 +30°C° 0 mm 2 m/S 755 mmHg 61%
    07:00 +32°C° 0 mm 2 m/S 755 mmHg 53%
    08:00 +35°C° 0 mm 2 m/S 756 mmHg 45%
    09:00 +37°C° 0 mm 2 m/S 756 mmHg 36%
    10:00 +39°C° 0 mm 2 m/S 756 mmHg 32%
    11:00 +41°C° 0 mm 1 m/S 756 mmHg 28%
    12:00 +43°C° 0 mm 1 m/S 756 mmHg 23%
    13:00 +42°C° 0 mm 2 m/S 755 mmHg 23%
    14:00 +42°C° 0 mm 2 m/S 754 mmHg 23%
    15:00 +41°C° 0 mm 2 m/S 753 mmHg 22%
    16:00 +41°C° 0 mm 2 m/S 753 mmHg 24%
    17:00 +40°C° 0 mm 3 m/S 753 mmHg 27%
    18:00 +39°C° 0 mm 3 m/S 752 mmHg 29%
    19:00 +38°C° 0 mm 4 m/S 753 mmHg 33%
    20:00 +37°C° 0 mm 4 m/S 753 mmHg 38%
    21:00 +35°C° 0 mm 5 m/S 753 mmHg 43%
    22:00 +35°C° 0 mm 4 m/S 754 mmHg 47%
    23:00 +34°C° 0 mm 4 m/S 754 mmHg 51%

    Morgen, 26 April, Freitag

    Zeit Temperatur Niederschläge Wind Luftdruck Luftfeuchtigkeit
    00:00 +33°C° 0 mm 3 m/S 754 mmHg 55%
    01:00 +33°C° 0 mm 3 m/S 753 mmHg 57%
    02:00 +31°C° 0 mm 3 m/S 753 mmHg 59%
    03:00 +31°C° 0 mm 3 m/S 753 mmHg 61%
    04:00 +31°C° 0 mm 3 m/S 753 mmHg 64%
    05:00 +30°C° 0 mm 3 m/S 753 mmHg 67%
    06:00 +30°C° 0 mm 2 m/S 753 mmHg 69%
    07:00 +33°C° 0 mm 3 m/S 754 mmHg 58%
    08:00 +36°C° 0 mm 3 m/S 754 mmHg 47%
    09:00 +38°C° 0 mm 3 m/S 755 mmHg 35%
    10:00 +40°C° 0 mm 3 m/S 755 mmHg 31%
    11:00 +42°C° 0 mm 3 m/S 754 mmHg 26%
    12:00 +43°C° 0 mm 2 m/S 754 mmHg 21%
    13:00 +43°C° 0 mm 2 m/S 753 mmHg 21%
    14:00 +42°C° 0 mm 2 m/S 753 mmHg 21%
    15:00 +42°C° 0 mm 2 m/S 752 mmHg 21%
    16:00 +42°C° 0 mm 3 m/S 752 mmHg 23%
    17:00 +40°C° 0 mm 3 m/S 752 mmHg 25%
    18:00 +41°C° 0 mm 4 m/S 752 mmHg 27%
    19:00 +38°C° 0 mm 4 m/S 752 mmHg 34%
    20:00 +36°C° 0 mm 5 m/S 753 mmHg 41%
    21:00 +34°C° 0 mm 5 m/S 753 mmHg 49%
    22:00 +34°C° 0 mm 5 m/S 753 mmHg 55%
    23:00 +33°C° 0 mm 4 m/S 753 mmHg 60%

    übermorgen, 27 April, Samstag

    Zeit Temperatur Niederschläge Wind Luftdruck Luftfeuchtigkeit
    00:00 +32°C° 0 mm 4 m/S 753 mmHg 66%
    01:00 +32°C° 0 mm 4 m/S 753 mmHg 67%
    02:00 +32°C° 0 mm 4 m/S 753 mmHg 69%
    03:00 +32°C° 0 mm 4 m/S 752 mmHg 70%
    04:00 +30°C° 0 mm 3 m/S 753 mmHg 71%
    05:00 +30°C° 0 mm 3 m/S 753 mmHg 73%
    06:00 +30°C° 0 mm 3 m/S 753 mmHg 74%
    07:00 +33°C° 0 mm 3 m/S 754 mmHg 63%
    08:00 +36°C° 0 mm 3 m/S 754 mmHg 53%
    09:00 +38°C° 0 mm 4 m/S 755 mmHg 42%
    10:00 +41°C° 0 mm 4 m/S 754 mmHg 36%
    11:00 +43°C° 0 mm 5 m/S 754 mmHg 30%
    12:00 +46°C° 0 mm 5 m/S 753 mmHg 24%
    13:00 +45°C° 0 mm 5 m/S 753 mmHg 26%
    14:00 +45°C° 0 mm 6 m/S 752 mmHg 28%
    15:00 +45°C° 0 mm 6 m/S 751 mmHg 30%
    16:00 +42°C° 0 mm 6 m/S 751 mmHg 32%
    17:00 +41°C° 0 mm 7 m/S 751 mmHg 34%
    18:00 +40°C° 0 mm 7 m/S 750 mmHg 36%
    19:00 +38°C° 0 mm 6 m/S 751 mmHg 42%
    20:00 +35°C° 0 mm 6 m/S 752 mmHg 49%
    21:00 +34°C° 0 mm 5 m/S 752 mmHg 55%
    22:00 +33°C° 0 mm 5 m/S 752 mmHg 60%
    23:00 +33°C° 0 mm 5 m/S 752 mmHg 64%

    28 April, Sonntag

    Zeit Temperatur Niederschläge Wind Luftdruck Luftfeuchtigkeit
    00:00 +32°C° 0 mm 5 m/S 752 mmHg 69%
    01:00 +32°C° 0 mm 5 m/S 752 mmHg 70%
    02:00 +32°C° 0 mm 5 m/S 752 mmHg 71%
    03:00 +32°C° 0 mm 5 m/S 752 mmHg 73%
    04:00 +32°C° 0 mm 4 m/S 752 mmHg 74%
    05:00 +32°C° 0 mm 4 m/S 753 mmHg 76%
    06:00 +30°C° 0 mm 4 m/S 753 mmHg 77%
    07:00 +33°C° 0 mm 5 m/S 753 mmHg 69%
    08:00 +35°C° 0 mm 6 m/S 754 mmHg 60%
    09:00 +38°C° 0 mm 7 m/S 754 mmHg 51%
    10:00 +40°C° 0 mm 7 m/S 754 mmHg 45%
    11:00 +41°C° 0 mm 7 m/S 754 mmHg 39%
    12:00 +44°C° 0 mm 7 m/S 753 mmHg 33%
    13:00 +44°C° 0 mm 8 m/S 752 mmHg 33%
    14:00 +44°C° 0 mm 8 m/S 751 mmHg 33%
    15:00 +44°C° 0 mm 8 m/S 751 mmHg 33%
    16:00 +41°C° 0 mm 8 m/S 751 mmHg 39%
    17:00 +40°C° 0 mm 8 m/S 751 mmHg 45%
    18:00 +38°C° 0 mm 7 m/S 751 mmHg 51%
    19:00 +36°C° 0 mm 7 m/S 751 mmHg 57%
    20:00 +34°C° 0 mm 7 m/S 752 mmHg 64%
    21:00 +33°C° 0 mm 7 m/S 752 mmHg 70%
    22:00 +33°C° 0 mm 7 m/S 752 mmHg 70%
    23:00 +33°C° 0 mm 7 m/S 752 mmHg 71%

    29 April, Montag

    Zeit Temperatur Niederschläge Wind Luftdruck Luftfeuchtigkeit
    00:00 +33°C° 0 mm 7 m/S 752 mmHg 71%
    01:00 +33°C° 0 mm 7 m/S 752 mmHg 71%
    02:00 +32°C° 0 mm 7 m/S 752 mmHg 72%
    03:00 +32°C° 0 mm 7 m/S 752 mmHg 73%
    04:00 +32°C° 0 mm 6 m/S 752 mmHg 73%
    05:00 +32°C° 0 mm 6 m/S 753 mmHg 73%
    06:00 +32°C° 0 mm 5 m/S 753 mmHg 74%
    07:00 +34°C° 0 mm 6 m/S 753 mmHg 67%
    08:00 +35°C° 0 mm 7 m/S 754 mmHg 61%
    09:00 +38°C° 0 mm 7 m/S 755 mmHg 54%
    10:00 +40°C° 0 mm 8 m/S 754 mmHg 49%
    11:00 +41°C° 0 mm 8 m/S 754 mmHg 43%
    12:00 +44°C° 0 mm 8 m/S 753 mmHg 37%
    13:00 +44°C° 0 mm 8 m/S 752 mmHg 37%
    14:00 +44°C° 0 mm 8 m/S 752 mmHg 36%
    15:00 +44°C° 0 mm 8 m/S 751 mmHg 36%
    16:00 +41°C° 0 mm 8 m/S 751 mmHg 41%
    17:00 +40°C° 0 mm 8 m/S 751 mmHg 45%
    18:00 +38°C° 0 mm 8 m/S 750 mmHg 50%
    19:00 +37°C° 0 mm 8 m/S 751 mmHg 57%
    20:00 +34°C° 0 mm 8 m/S 751 mmHg 64%
    21:00 +33°C° 0 mm 7 m/S 752 mmHg 71%
    22:00 +33°C° 0 mm 7 m/S 752 mmHg 72%
    23:00 +33°C° 0 mm 7 m/S 752 mmHg 73%

    30 April, Dienstag

    Zeit Temperatur Niederschläge Wind Luftdruck Luftfeuchtigkeit
    00:00 +33°C° 0 mm 7 m/S 752 mmHg 74%
    01:00 +32°C° 0 mm 7 m/S 752 mmHg 75%
    02:00 +32°C° 0 mm 7 m/S 752 mmHg 75%
    03:00 +32°C° 0 mm 6 m/S 752 mmHg 76%
    04:00 +32°C° 0 mm 6 m/S 752 mmHg 76%
    05:00 +32°C° 0 mm 5 m/S 752 mmHg 76%
    06:00 +32°C° 0 mm 5 m/S 753 mmHg 76%
    07:00 +34°C° 0 mm 6 m/S 753 mmHg 68%
    08:00 +35°C° 0 mm 6 m/S 753 mmHg 60%
    09:00 +38°C° 0 mm 7 m/S 754 mmHg 52%
    10:00 +40°C° 0 mm 7 m/S 753 mmHg 47%
    11:00 +41°C° 0 mm 8 m/S 753 mmHg 41%
    12:00 +44°C° 0 mm 8 m/S 752 mmHg 35%
    13:00 +44°C° 0 mm 8 m/S 752 mmHg 35%
    14:00 +44°C° 0 mm 8 m/S 751 mmHg 35%
    15:00 +44°C° 0 mm 8 m/S 750 mmHg 34%
    16:00 +41°C° 0 mm 8 m/S 750 mmHg 39%
    17:00 +40°C° 0 mm 8 m/S 750 mmHg 44%
    18:00 +38°C° 0 mm 8 m/S 750 mmHg 49%
    19:00 +37°C° 0 mm 8 m/S 750 mmHg 56%
    20:00 +34°C° 0 mm 8 m/S 751 mmHg 63%
    21:00 +33°C° 0 mm 8 m/S 751 mmHg 70%
    22:00 +33°C° 0 mm 8 m/S 752 mmHg 71%
    23:00 +33°C° 0 mm 7 m/S 752 mmHg 72%
    Mehr zeigen